Location: Alafon
(8.4500°N, 4.2333°E)
Time: 18:02:20
(UTC+00:00)

A-11 Canister half - Pass Details

Date: 12 August 2021
Orbit: 1515 x 1685 km, 47.2° (Epoch: 19 September)

Event Time Altitude Azimuth Distance (km) Brightness Sun altitude
Rises 21:03:27 0° 327° (NNW) 4,905 12.3 -43.1°
Reaches altitude 10° 21:06:42 10° 331° (NNW) 3,929 11.6 -43.8°
Enters shadow 21:13:15 42° 357° (N) 2,263 9.9 -45.2°
Maximum altitude 21:16:35 56° 48° (NE) 1,939 - -45.9°
Drops below altitude 10° 21:26:25 10° 124° (SE) 3,921 - -48.0°
Sets 21:29:38 0° 128° (SE) 4,894 - -48.6°
